Current Weather Conditions by Major Hwy


I-84 West to East [Columbia River Gorge] 600 AM PDT WED SEP 23 2020 ELEVA CITY SKY/WX TMP DP RH WIND PRES REMARKS 10 ASTORIA, OR CLOUDY 63 59 87 S9G22 29.83F 20 KELSO RAIN 59 56 89 SE15 29.90F 40 PORTLAND, OR LGT RAIN 63 57 81 E6 29.95S 30 TROUTDALE, OR CLOUDY 61 55 81 E5 29.94F 240 THE DALLES, OR MOCLDY 60 50 69 CALM 29.94S 620 HERMISTON, OR CLOUDY 62 47 57 S3 29.94F 1,480 PENDLETON, OR CLOUDY 57 47 69 SE7 29.97F 2,710 LA GRANDE MOCLDY 49 44 83 S3 30.07R 3,370 BAKER CITY MOCLDY 51 43 74 VRB5 30.09R 2,190 ONTARIO MOCLDY 52 43 71 CALM 30.07R
I-90 West to East 600 AM PDT WED SEP 23 2020 ELEVA CITY SKY/WX TMP DP RH WIND PRES REMARKS 30 SEATAC AIRPORT LGT RAIN 59 56 89 SE13 29.87S 1,730 ELLENSBURG PTCLDY 57 49 74 CALM 29.93S 1,200 MOSES LAKE MOCLDY 60 45 57 SE8 29.92S 1,880 SPOKANE GEIGER CLOUDY 57 44 62 S10 30.00R
I-82 North West to South East 600 AM PDT WED SEP 23 2020 ELEVA CITY SKY/WX TMP DP RH WIND PRES REMARKS 1,730 ELLENSBURG PTCLDY 57 49 74 CALM 29.93S 1,050 YAKIMA TC PTSUNNY 64 40 40 S12 29.91S 720 360 PASCO CLOUDY 67 51 56 SE9 29.94S 620 HERMISTON, OR CLOUDY 62 47 57 S3 29.94F
Hwy97 North to South 600 AM PDT WED SEP 23 2020 ELEVA CITY SKY/WX TMP DP RH WIND PRES REMARKS 850 OMAK PTCLDY 65 46 50 S9 29.89F 630 WENATCHEE CLOUDY 60 50 69 N5 29.89F 1,730 ELLENSBURG PTCLDY 57 49 74 CALM 29.93S 1,050 YAKIMA TC PTSUNNY 64 40 40 S12 29.91S 1,640 GOLDENDALE* MOCLDY 60 50 69 CALM 29.94S *From Dallesport Airport Elev 240 3,080 REDMOND MOCLDY 58 36 43 S14 30.02S 4,100 KLAMATH FALLS PTCLDY 39 35 86 CALM 30.14R
I-5 North to South 600 AM PDT WED SEP 23 2020 ELEVA CITY SKY/WX TMP DP RH WIND PRES REMARKS 150 BELLINGHAM LGT RAIN 63 53 70 S13G21 29.77S 100 ARLINGTON CLOUDY 63 53 70 S15 29.86S 610 EVERETT LGT RAIN 59 55 87 SE17 29.87S 30 SEATAC AIRPORT LGT RAIN 59 56 89 SE13 29.87S 200 OLYMPIA LGT RAIN 58 55 90 S17 29.86F 20 KELSO RAIN 59 56 89 SE15 29.90F 100 VANCOUVER LGT RAIN 65 54 67 SE5 29.94S 40 PORTLAND LGT RAIN 63 57 81 E6 29.95S 200 SALEM CLOUDY 64 53 67 S6 29.93F 360 EUGENE CLOUDY 60 55 83 S5 29.97F 510 ROSEBURG MOCLDY 57 53 86 CALM 30.00S 1,300 MEDFORD MOCLDY 52 39 61 N3 30.06R
Data from:
http://www.wrh.noaa.gov/sew/get.php?pil=RWR&sid=OR&version=0&format=printer
http://www.wrh.noaa.gov/sew/get.php?pil=RWR&sid=WA&version=0&format=printer

Current Observations

Washington State Current Weather Observations   …  Oregon State Current Weather Observation



48 Hour Forecast

Seattle  …  Vancouver  …  Portland
————————————————————————————————————————
Bend  …  Spokane  …  Richland  …  Pendleton  …  Blue Mountains I-84  …  Yakima
————————————————————————————————————————
Goldendale, Washington Higher Elevations  …  Dallesport Airport - Goldendale  …  Bingen - White Salmon - Hood River  …  Index


Top of Page